PJA23 EGGD-EGFE

Flight info

Callsign PJA23
Flight time 0h 55m
Altitude 4000
Route BCN DCT 5154N00455W
Aircraft PA24/L-SDGRY/S

Departure

Time 2026-05-06 13:44
Airport Bristol Airport (EGGD)

Arrival

Time 2026-05-06 14:39
Airport Haverfordwest Airport (EGFE)
Time Latitude Longitude Altitude Speed Heading
2026-05-06 13:39 51.38315 -2.70694 605 ft 0 kts 266°
2026-05-06 13:43 51.38311 -2.70793 605 ft 33 kts 267°
2026-05-06 13:43 51.38295 -2.71423 637 ft 76 kts 267°
2026-05-06 13:43 51.38271 -2.72397 765 ft 99 kts 267°
2026-05-06 13:43 51.38232 -2.73604 950 ft 113 kts 266°
2026-05-06 13:44 51.38183 -2.74884 1173 ft 119 kts 266°
2026-05-06 13:44 51.38135 -2.76228 1411 ft 122 kts 267°
2026-05-06 13:44 51.38088 -2.77583 1651 ft 122 kts 267°
2026-05-06 13:44 51.38042 -2.78943 1892 ft 123 kts 267°
2026-05-06 13:45 51.37996 -2.80308 2134 ft 123 kts 267°
2026-05-06 13:45 51.37904 -2.83031 2634 ft 122 kts 267°
2026-05-06 13:45 51.37858 -2.84386 2908 ft 122 kts 267°
2026-05-06 13:46 51.37813 -2.85741 3172 ft 121 kts 268°
2026-05-06 13:46 51.37845 -2.87093 3432 ft 121 kts 276°
2026-05-06 13:46 51.37991 -2.88419 3663 ft 121 kts 283°
2026-05-06 13:46 51.38247 -2.89701 3887 ft 121 kts 291°
2026-05-06 13:47 51.38615 -2.90948 3992 ft 130 kts 298°
2026-05-06 13:47 51.39136 -2.92199 4004 ft 137 kts 307°
2026-05-06 13:47 51.39781 -2.93332 4003 ft 139 kts 316°
2026-05-06 13:47 51.40522 -2.94292 4004 ft 139 kts 324°
2026-05-06 13:48 51.41343 -2.95116 4009 ft 139 kts 327°
2026-05-06 13:48 51.42164 -2.95941 4012 ft 140 kts 327°
2026-05-06 13:48 51.42991 -2.96771 4008 ft 140 kts 327°
2026-05-06 13:48 51.43814 -2.97597 4013 ft 140 kts 327°
2026-05-06 13:49 51.44638 -2.98423 4010 ft 140 kts 327°
2026-05-06 13:49 51.45466 -2.99243 4012 ft 140 kts 327°
2026-05-06 13:49 51.46292 -3.00060 4011 ft 138 kts 327°
2026-05-06 13:49 51.47104 -3.00866 4007 ft 137 kts 327°
2026-05-06 13:50 51.47902 -3.01658 4003 ft 131 kts 327°
2026-05-06 13:50 51.48654 -3.02405 4012 ft 124 kts 327°
2026-05-06 13:50 51.49380 -3.03126 4005 ft 121 kts 327°
2026-05-06 13:50 51.50094 -3.03836 4010 ft 120 kts 327°
2026-05-06 13:51 51.50802 -3.04540 4012 ft 119 kts 327°
2026-05-06 13:51 51.51498 -3.05234 4005 ft 119 kts 327°
2026-05-06 13:51 51.52214 -3.05945 4005 ft 120 kts 327°
2026-05-06 13:51 51.52913 -3.06643 4011 ft 120 kts 327°
2026-05-06 13:52 51.53624 -3.07350 4009 ft 120 kts 327°
2026-05-06 13:52 51.54337 -3.08061 4005 ft 121 kts 327°
2026-05-06 13:52 51.55048 -3.08769 4002 ft 119 kts 327°
2026-05-06 13:52 51.55756 -3.09475 4012 ft 121 kts 327°
2026-05-06 13:53 51.56477 -3.10194 4009 ft 121 kts 327°
2026-05-06 13:53 51.57195 -3.10911 4011 ft 122 kts 327°
2026-05-06 13:53 51.57909 -3.11625 4006 ft 120 kts 327°
2026-05-06 13:53 51.58616 -3.12330 4011 ft 120 kts 327°
2026-05-06 13:54 51.59327 -3.13040 4007 ft 120 kts 327°
2026-05-06 13:54 51.60039 -3.13752 4004 ft 121 kts 327°
2026-05-06 13:54 51.60751 -3.14464 4009 ft 121 kts 327°
2026-05-06 13:54 51.61462 -3.15175 4004 ft 120 kts 327°
2026-05-06 13:55 51.62166 -3.15879 4008 ft 121 kts 327°
2026-05-06 13:55 51.62881 -3.16595 4004 ft 122 kts 327°
2026-05-06 13:55 51.63615 -3.17330 4013 ft 123 kts 327°
2026-05-06 13:55 51.64331 -3.18047 4011 ft 122 kts 327°
2026-05-06 13:56 51.65052 -3.18770 4013 ft 124 kts 327°
2026-05-06 13:56 51.65789 -3.19509 4009 ft 125 kts 327°
2026-05-06 13:56 51.66524 -3.20246 4011 ft 125 kts 327°
2026-05-06 13:56 51.67260 -3.20985 4013 ft 126 kts 327°
2026-05-06 13:57 51.68007 -3.21734 4011 ft 127 kts 327°
2026-05-06 13:57 51.68755 -3.22485 4010 ft 126 kts 327°
2026-05-06 13:57 51.69498 -3.23230 4011 ft 126 kts 327°
2026-05-06 13:57 51.70237 -3.23974 4003 ft 125 kts 327°
2026-05-06 13:58 51.70972 -3.24713 4008 ft 124 kts 327°
2026-05-06 13:58 51.71701 -3.25446 3999 ft 123 kts 327°
2026-05-06 13:58 51.72410 -3.26239 4005 ft 125 kts 313°
2026-05-06 13:58 51.72704 -3.27529 4000 ft 124 kts 279°
2026-05-06 13:59 51.72847 -3.28887 3998 ft 124 kts 280°
2026-05-06 13:59 51.72999 -3.30250 3998 ft 124 kts 280°
2026-05-06 13:59 51.73153 -3.31623 3996 ft 125 kts 280°
2026-05-06 13:59 51.73307 -3.33000 4003 ft 124 kts 280°
2026-05-06 14:00 51.73462 -3.34383 4006 ft 126 kts 280°
2026-05-06 14:00 51.73619 -3.35778 4003 ft 126 kts 280°
2026-05-06 14:00 51.73773 -3.37159 4000 ft 124 kts 280°
2026-05-06 14:00 51.73927 -3.38531 4001 ft 124 kts 280°
2026-05-06 14:01 51.74080 -3.39899 3999 ft 123 kts 280°
2026-05-06 14:01 51.74231 -3.41255 3999 ft 123 kts 280°
2026-05-06 14:01 51.74332 -3.42155 4000 ft 123 kts 280°
2026-05-06 14:01 51.74534 -3.43971 3998 ft 125 kts 280°
2026-05-06 14:02 51.74687 -3.45343 4000 ft 124 kts 280°
2026-05-06 14:02 51.74838 -3.46707 3996 ft 123 kts 280°
2026-05-06 14:02 51.74989 -3.48067 3999 ft 123 kts 280°
2026-05-06 14:02 51.75139 -3.49420 3997 ft 123 kts 280°
2026-05-06 14:03 51.75239 -3.50321 3992 ft 123 kts 280°
2026-05-06 14:03 51.75389 -3.51670 3998 ft 122 kts 280°
2026-05-06 14:03 51.75537 -3.53015 3997 ft 122 kts 280°
2026-05-06 14:03 51.75686 -3.54357 3992 ft 121 kts 280°
2026-05-06 14:04 51.75834 -3.55698 3994 ft 121 kts 280°
2026-05-06 14:04 51.75982 -3.57045 3998 ft 122 kts 280°
2026-05-06 14:04 51.76131 -3.58401 3998 ft 123 kts 280°
2026-05-06 14:04 51.76282 -3.59767 4000 ft 124 kts 280°
2026-05-06 14:05 51.76432 -3.61134 4002 ft 124 kts 280°
2026-05-06 14:05 51.76583 -3.62513 4001 ft 124 kts 280°
2026-05-06 14:05 51.76733 -3.63883 4000 ft 124 kts 280°
2026-05-06 14:05 51.76883 -3.65246 3994 ft 123 kts 280°
2026-05-06 14:06 51.77030 -3.66602 3998 ft 123 kts 280°
2026-05-06 14:06 51.77178 -3.67952 3998 ft 122 kts 280°
2026-05-06 14:06 51.77326 -3.69306 4003 ft 124 kts 279°
2026-05-06 14:06 51.77476 -3.70678 4001 ft 124 kts 279°
2026-05-06 14:07 51.77622 -3.72027 4001 ft 123 kts 279°
2026-05-06 14:07 51.77772 -3.73403 4004 ft 125 kts 279°
2026-05-06 14:07 51.77922 -3.74787 4001 ft 125 kts 279°
2026-05-06 14:07 51.78072 -3.76164 4004 ft 125 kts 279°
2026-05-06 14:08 51.78221 -3.77541 3997 ft 124 kts 279°
2026-05-06 14:08 51.78369 -3.78906 4002 ft 123 kts 279°
2026-05-06 14:08 51.78517 -3.80273 4000 ft 123 kts 279°
2026-05-06 14:08 51.78663 -3.81630 3998 ft 123 kts 279°
2026-05-06 14:09 51.78809 -3.82982 3997 ft 122 kts 279°
2026-05-06 14:09 51.78955 -3.84329 3995 ft 123 kts 279°
2026-05-06 14:09 51.79101 -3.85690 3994 ft 123 kts 279°
2026-05-06 14:09 51.79247 -3.87050 4000 ft 123 kts 279°
2026-05-06 14:10 51.79393 -3.88415 4002 ft 124 kts 279°
2026-05-06 14:10 51.79539 -3.89769 3999 ft 123 kts 279°
2026-05-06 14:10 51.79686 -3.91139 4001 ft 124 kts 279°
2026-05-06 14:10 51.79833 -3.92508 3992 ft 124 kts 279°
2026-05-06 14:11 51.79979 -3.93884 3996 ft 123 kts 279°
2026-05-06 14:11 51.80125 -3.95249 3998 ft 123 kts 279°
2026-05-06 14:11 51.80271 -3.96617 4001 ft 124 kts 279°
2026-05-06 14:11 51.80415 -3.97970 4000 ft 124 kts 279°
2026-05-06 14:12 51.80561 -3.99335 4001 ft 123 kts 279°
2026-05-06 14:12 51.80706 -4.00697 3999 ft 123 kts 279°
2026-05-06 14:12 51.80850 -4.02061 4001 ft 123 kts 279°
2026-05-06 14:12 51.80995 -4.03425 3999 ft 123 kts 279°
2026-05-06 14:13 51.81139 -4.04791 4000 ft 123 kts 279°
2026-05-06 14:13 51.81283 -4.06149 4000 ft 123 kts 279°
2026-05-06 14:13 51.81427 -4.07512 3998 ft 123 kts 279°
2026-05-06 14:13 51.81571 -4.08874 4000 ft 123 kts 279°
2026-05-06 14:14 51.81715 -4.10237 3998 ft 122 kts 279°
2026-05-06 14:14 51.81857 -4.11590 3999 ft 122 kts 279°
2026-05-06 14:14 51.82000 -4.12948 4001 ft 123 kts 279°
2026-05-06 14:14 51.82145 -4.14318 4001 ft 124 kts 279°
2026-05-06 14:15 51.82287 -4.15680 4003 ft 125 kts 279°
2026-05-06 14:15 51.82432 -4.17067 4002 ft 125 kts 279°
2026-05-06 14:15 51.82577 -4.18450 4002 ft 124 kts 279°
2026-05-06 14:15 51.82722 -4.19829 4001 ft 124 kts 279°
2026-05-06 14:16 51.82865 -4.21201 4000 ft 123 kts 279°
2026-05-06 14:16 51.83007 -4.22563 4000 ft 123 kts 279°
2026-05-06 14:16 51.83149 -4.23924 4000 ft 123 kts 279°
2026-05-06 14:16 51.83291 -4.25291 3998 ft 124 kts 279°
2026-05-06 14:17 51.83434 -4.26669 3994 ft 124 kts 279°
2026-05-06 14:17 51.83577 -4.28042 3999 ft 124 kts 279°
2026-05-06 14:17 51.83720 -4.29426 3996 ft 125 kts 279°
2026-05-06 14:17 51.83863 -4.30803 4000 ft 124 kts 279°
2026-05-06 14:18 51.84005 -4.32174 4000 ft 123 kts 279°
2026-05-06 14:18 51.84145 -4.33534 4002 ft 123 kts 279°
2026-05-06 14:18 51.84287 -4.34903 4002 ft 124 kts 279°
2026-05-06 14:18 51.84427 -4.36266 3999 ft 125 kts 279°
2026-05-06 14:19 51.84570 -4.37654 4001 ft 125 kts 279°
2026-05-06 14:19 51.84714 -4.39050 3996 ft 126 kts 279°
2026-05-06 14:19 51.84857 -4.40441 3995 ft 125 kts 279°
2026-05-06 14:19 51.84998 -4.41817 4002 ft 124 kts 279°
2026-05-06 14:20 51.85139 -4.43190 4002 ft 124 kts 279°
2026-05-06 14:20 51.85279 -4.44562 3997 ft 123 kts 279°
2026-05-06 14:20 51.85419 -4.45927 3995 ft 123 kts 279°
2026-05-06 14:20 51.85558 -4.47291 4003 ft 124 kts 279°
2026-05-06 14:21 51.85699 -4.48678 4003 ft 125 kts 279°
2026-05-06 14:21 51.85839 -4.50046 4001 ft 125 kts 279°
2026-05-06 14:21 51.85980 -4.51436 4001 ft 125 kts 279°
2026-05-06 14:21 51.86119 -4.52798 3998 ft 120 kts 279°
2026-05-06 14:22 51.86253 -4.54114 3998 ft 118 kts 279°
2026-05-06 14:22 51.86387 -4.55441 3939 ft 120 kts 279°
2026-05-06 14:22 51.86520 -4.56755 3862 ft 117 kts 279°
2026-05-06 14:22 51.86651 -4.58051 3789 ft 117 kts 279°
2026-05-06 14:23 51.86782 -4.59347 3712 ft 117 kts 279°
2026-05-06 14:23 51.86914 -4.60654 3635 ft 118 kts 279°
2026-05-06 14:23 51.87045 -4.61963 3563 ft 119 kts 279°
2026-05-06 14:23 51.87178 -4.63275 3484 ft 118 kts 279°
2026-05-06 14:24 51.87309 -4.64589 3417 ft 120 kts 279°
2026-05-06 14:24 51.87444 -4.65928 3343 ft 121 kts 279°
2026-05-06 14:24 51.87579 -4.67266 3262 ft 119 kts 279°
2026-05-06 14:24 51.87709 -4.68571 3185 ft 116 kts 279°
2026-05-06 14:25 51.87837 -4.69848 3112 ft 117 kts 279°
2026-05-06 14:25 51.87966 -4.71139 3033 ft 115 kts 279°
2026-05-06 14:25 51.88094 -4.72413 2961 ft 113 kts 279°
2026-05-06 14:25 51.88212 -4.73609 2877 ft 104 kts 279°
2026-05-06 14:26 51.88324 -4.74731 2789 ft 98 kts 279°
2026-05-06 14:26 51.88431 -4.75806 2703 ft 95 kts 279°
2026-05-06 14:26 51.88535 -4.76848 2621 ft 93 kts 278°
2026-05-06 14:26 51.88638 -4.77884 2547 ft 94 kts 279°
2026-05-06 14:27 51.88742 -4.78930 2466 ft 93 kts 278°
2026-05-06 14:27 51.88844 -4.79963 2395 ft 94 kts 278°
2026-05-06 14:27 51.88949 -4.81025 2318 ft 95 kts 279°
2026-05-06 14:27 51.89052 -4.82068 2242 ft 93 kts 278°
2026-05-06 14:28 51.89155 -4.83100 2164 ft 92 kts 279°
2026-05-06 14:28 51.89256 -4.84131 2094 ft 94 kts 279°
2026-05-06 14:28 51.89360 -4.85174 2016 ft 92 kts 278°
2026-05-06 14:28 51.89457 -4.86161 1933 ft 88 kts 279°
2026-05-06 14:29 51.89551 -4.87121 1855 ft 86 kts 279°
2026-05-06 14:29 51.89645 -4.88076 1772 ft 85 kts 279°
2026-05-06 14:29 51.89739 -4.89027 1692 ft 85 kts 278°
2026-05-06 14:29 51.89831 -4.89961 1613 ft 83 kts 278°
2026-05-06 14:30 51.89893 -4.90887 1526 ft 83 kts 265°
2026-05-06 14:30 51.89671 -4.91702 1497 ft 77 kts 231°
2026-05-06 14:30 51.89258 -4.92164 1490 ft 69 kts 202°
2026-05-06 14:30 51.88828 -4.92452 1491 ft 66 kts 204°
2026-05-06 14:31 51.88408 -4.92738 1487 ft 65 kts 205°
2026-05-06 14:31 51.87997 -4.93017 1486 ft 62 kts 204°
2026-05-06 14:31 51.87594 -4.93289 1496 ft 64 kts 203°
2026-05-06 14:31 51.87174 -4.93573 1504 ft 69 kts 204°
2026-05-06 14:32 51.86734 -4.93884 1499 ft 69 kts 206°
2026-05-06 14:32 51.86293 -4.94222 1489 ft 70 kts 207°
2026-05-06 14:32 51.85859 -4.94586 1414 ft 71 kts 211°
2026-05-06 14:32 51.85430 -4.94978 1361 ft 71 kts 210°
2026-05-06 14:33 51.84993 -4.95376 1311 ft 72 kts 211°
2026-05-06 14:33 51.84555 -4.95765 1261 ft 74 kts 209°
2026-05-06 14:33 51.84107 -4.96149 1257 ft 68 kts 207°
2026-05-06 14:33 51.83687 -4.96517 1235 ft 68 kts 211°
2026-05-06 14:34 51.83276 -4.96912 1223 ft 69 kts 213°
2026-05-06 14:34 51.82866 -4.97319 1190 ft 71 kts 213°
2026-05-06 14:34 51.82442 -4.97778 1139 ft 75 kts 214°
2026-05-06 14:34 51.81999 -4.98229 1078 ft 76 kts 212°
2026-05-06 14:35 51.81637 -4.98814 1018 ft 75 kts 242°
2026-05-06 14:35 51.81385 -4.99537 994 ft 71 kts 239°
2026-05-06 14:35 51.81143 -5.00225 981 ft 72 kts 242°
2026-05-06 14:35 51.80930 -5.00935 972 ft 71 kts 244°
2026-05-06 14:36 51.80686 -5.01632 960 ft 70 kts 234°
2026-05-06 14:36 51.80218 -5.01915 907 ft 74 kts 178°
2026-05-06 14:36 51.79739 -5.01581 816 ft 80 kts 147°
2026-05-06 14:36 51.79397 -5.00878 702 ft 82 kts 110°
2026-05-06 14:37 51.79506 -5.00048 628 ft 78 kts 47°
2026-05-06 14:37 51.79905 -4.99504 603 ft 74 kts 35°
2026-05-06 14:37 51.80327 -4.99048 591 ft 72 kts 31°
2026-05-06 14:37 51.80746 -4.98603 586 ft 72 kts 33°
2026-05-06 14:38 51.81155 -4.98158 597 ft 71 kts 30°
2026-05-06 14:38 51.81583 -4.97721 523 ft 76 kts 24°
2026-05-06 14:38 51.82047 -4.97322 411 ft 75 kts 30°
2026-05-06 14:38 51.82487 -4.96871 270 ft 73 kts 26°
2026-05-06 14:39 51.82898 -4.96486 155 ft 64 kts 25°
2026-05-06 14:39 51.83185 -4.96229 143 ft 22 kts 31°
2026-05-06 14:39 51.83311 -4.96115 142 ft 20 kts 28°
2026-05-06 14:39 51.83414 -4.96031 140 ft 15 kts 18°
2026-05-06 14:40 51.83446 -4.96143 139 ft 12 kts 268°
2026-05-06 14:40 51.83442 -4.96270 139 ft 10 kts 266°
2026-05-06 14:40 51.83437 -4.96380 139 ft 9 kts 265°
2026-05-06 14:40 51.83423 -4.96522 139 ft 18 kts 260°
2026-05-06 14:41 51.83412 -4.96717 139 ft 17 kts 282°
2026-05-06 14:41 51.83487 -4.96828 138 ft 15 kts 344°
2026-05-06 14:41 51.83453 -4.96845 138 ft 12 kts 165°
2026-05-06 14:41 51.83319 -4.96770 139 ft 26 kts 158°
2026-05-06 14:42 51.83174 -4.96664 140 ft 22 kts 136°
2026-05-06 14:42 51.83108 -4.96660 141 ft 0 kts 254°